Cloud_Cover
100 51 37 69 33 21 4 0 3 6 100 100 100 100 100 58 81 76 99 41 99 100 100 100 100 52 71 86 90 100 100 99 97 100 100 100 100 100 100 98 100 100 100 66 100
100 94 29 40 79 0 0 0 5 85 100 96 82 97 100 34 13 68 56 100 100 100 100 100 100 53 59 32 46 69 91 100 100 100 100 100 100 100 100 100 100 100 100 100 99
100 26 65 100 74 0 0 0 0 2 22 100 52 4 55 9 4 4 100 100 100 100 100 100 100 67 41 36 11 28 4 43 100 100 100 100 100 100 100 100 100 100 100 100 100
100 42 100 44 15 0 0 0 0 0 0 3 78 3 5 99 32 58 100 100 100 100 100 100 95 65 6 97 0 0 12 25 100 100 100 100 100 100 98 100 100 100 100 100 100
100 49 57 59 2 0 0 0 0 0 0 3 10 23 64 34 2 19 91 100 98 100 100 100 100 29 65 4 6 0 42 28 100 100 100 100 100 100 100 100 100 100 100 100 100
100 75 1 8 0 0 5 3 0 0 0 4 64 94 5 27 2 5 69 79 92 100 100 100 99 53 98 14 1 15 86 96 75 100 100 100 100 100 99 100 100 100 100 100 100
86 100 14 0 0 0 0 0 0 0 0 0 45 1 2 3 5 5 60 96 88 100 100 100 100 100 99 76 5 0 4 47 62 100 100 100 100 88 100 94 100 100 100 100 100
100 100 79 1 0 0 0 0 0 0 1 0 38 0 26 33 97 18 48 6 56 100 100 100 100 100 100 73 19 9 6 76 73 100 100 100 100 100 100 51 87 100 100 100 100
27 100 100 10 5 5 0 0 0 5 5 5 5 14 67 71 100 100 100 66 100 100 100 100 100 100 100 100 66 92 33 18 60 74 100 100 100 100 100 97 95 100 100 100 100
100 100 100 69 12 5 1 5 0 0 5 1 5 15 86 95 100 100 100 100 86 100 100 100 100 100 94 99 60 93 26 23 6 100 100 100 100 100 100 100 100 100 100 100 100
91 100 100 100 10 5 5 5 4 88 65 5 5 5 95 100 100 74 100 100 41 100 100 100 100 55 99 100 100 59 5 0 5 100 100 100 100 100 100 100 100 100 100 100 100
100 69 100 100 93 8 5 3 96 5 100 100 10 72 100 99 100 80 36 84 100 100 100 100 98 100 100 98 100 100 32 0 0 95 100 100 100 100 100 100 100 100 96 97 99
100 100 96 100 84 4 5 5 46 45 54 95 5 6 23 12 45 51 56 86 100 100 100 100 31 100 100 98 51 100 74 3 0 19 78 100 100 100 100 100 100 100 100 100 98
100 100 100 100 35 5 5 5 5 9 5 19 5 5 52 10 85 6 5 96 100 100 100 100 100 97 100 78 89 100 65 3 0 3 46 100 100 100 100 100 100 100 100 100 100
100 76 100 100 4 4 4 5 5 5 9 5 90 22 99 5 6 30 14 100 100 100 100 98 55 7 65 76 79 100 96 19 5 5 5 5 98 100 100 100 100 100 100 100 88
31 95 99 99 93 5 5 5 20 5 79 78 71 15 71 63 99 100 100 92 100 100 100 100 95 69 6 86 99 55 100 83 5 17 55 5 33 100 100 100 100 100 100 100 100
38 49 81 0 4 34 40 5 12 7 5 99 69 86 100 92 100 100 100 100 100 100 100 100 84 57 66 5 94 81 100 77 80 76 27 3 0 90 100 100 100 100 100 100 100
3 12 5 1 5 10 32 46 7 5 46 99 68 69 90 100 96 100 100 100 100 100 100 100 100 56 73 83 59 96 79 53 15 54 5 1 0 0 100 100 100 100 100 100 100
0 0 9 0 99 93 70 5 4 5 5 44 53 100 100 100 100 100 100 100 100 100 100 100 100 100 98 80 16 11 78 72 9 6 5 3 0 0 12 100 100 100 100 100 100
0 0 5 0 100 98 63 13 5 5 5 5 40 85 71 100 100 100 100 100 100 100 100 100 100 100 91 40 24 5 23 42 78 73 5 3 0 0 0 3 96 100 100 32 98
0 4 21 0 100 100 6 57 5 5 5 5 9 93 43 98 32 100 100 100 100 100 100 100 100 100 90 100 100 99 57 38 41 32 21 5 1 0 0 0 0 100 100 100 92
0 76 52 0 97 100 18 5 5 5 5 5 10 73 81 84 98 5 100 100 100 100 100 100 100 100 90 80 92 100 94 97 80 72 28 9 4 0 0 0 2 0 47 100 100
14 72 92 55 78 31 5 5 4 4 2 2 48 5 63 100 53 14 5 100 100 52 100 62 63 100 100 73 98 100 100 99 71 93 55 83 15 100 100 44 4 16 0 0 52
5 34 97 100 100 76 5 5 2 2 3 5 5 57 5 10 31 41 54 67 97 97 97 80 62 99 94 99 90 100 100 100 100 100 92 48 64 100 100 60 93 93 7 6 2
10 11 12 89 98 5 5 8 5 5 5 5 5 5 14 20 5 5 5 21 73 99 100 100 100 100 100 100 60 5 100 100 100 99 90 90 52 100 46 58 8 5 5 6 6
0 5 4 4 5 5 5 5 84 99 87 37 5 5 5 5 5 5 5 3 5 5 91 99 99 99 99 64 59 99 56 52 99 93 95 64 100 34 10 10 21 5 40 9 49
0 2 24 4 5 22 17 42 88 100 95 98 18 5 5 19 5 5 8 5 5 12 60 100 95 91 82 5 5 18 82 5 5 21 5 77 100 100 97 39 61 82 46 94 95